Regional Weather Roundup
Issued by NWS Green Bay, WI

Home | Current Version | Previous Version | Text Only | Print | Product List | Glossary On
Versions: 1 2 3 4 5 6 7 8 9 10 11 12 13 14 15 16 17 18 19 20 21 22 23 24 25 26 27 28 29 30 31 32 33 34 35 36 37 38 39 40 41 42 43 44 45 46 47 48 49 50
000
ASUS43 KGRB 270710
RWRGRB

NORTH-CENTRAL AND NORTHEAST WISCONSIN REGIONAL WEATHER ROUNDUP
NATIONAL WEATHER SERVICE GREEN BAY WI
100 AM CST FRI FEB 27 2015

WIZ005-009-010>012-018-019-270800-
NORTH CENTRAL WISCONSIN

CITY           SKY/WX    TMP DP  RH WIND       PRES   REMARKS
IRONWOOD       CLEAR     -8 -26  41 SW6       30.32R WCI -21
MANITOWISH WTR CLEAR    -19 -26  72 CALM      30.30S
ARBOR VITAE    CLEAR     -9 -15  74 CALM      30.30S
EAGLE RIVER    CLEAR    -18 -24  71 CALM      30.29R
LAND O LAKES   CLEAR    -24 -31  71 CALM      30.28F
RHINELANDER    CLEAR    -11 -18  71 W7        30.31R WCI -26
PHILLIPS       CLEAR    -16 -21  78 CALM      30.34R
ANTIGO         CLEAR     -7 -14  72 W7        30.32S WCI -21
TOMAHAWK         N/A    -18 -24  72 CALM      30.34R
MERRILL        CLEAR    -14 -20  75 CALM      30.36R
$$

WIZ013-073-270800-
NORTHEAST WISCONSIN

CITY           SKY/WX    TMP DP  RH WIND       PRES   REMARKS
IRON MOUNTAIN  CLEAR     -9 -16  71 CALM      30.31S
MARINETTE      CLEAR     -9 -15  77 CALM      30.39S
OCONTO         CLEAR    -10 -14  82 CALM      30.42R
$$

WIZ017-030-035>037-045-270800-
CENTRAL WISCONSIN

CITY           SKY/WX    TMP DP  RH WIND       PRES   REMARKS
MEDFORD        CLEAR     -7 -15  69 W5        30.35R WCI -19
WAUSAU         CLEAR     -3 -12  65 NW5       30.37R WCI -13
MOSINEE        CLEAR     -2  -9  71 W6        30.38S WCI -14
MARSHFIELD     CLEAR     -3 -13  62 W7        30.39R WCI -16
WISC RAPIDS    CLEAR     -3 -13  62 NW3       30.43R
STEVENS POINT  CLEAR     -3 -12  66 CALM      30.41R
WAUPACA        CLEAR      2  -9  60 W3        30.43R
SHAWANO        CLEAR      0 -10  63 W3        30.41S
CLINTONVILLE   CLEAR      1  -8  66 CALM      30.41R
$$

WIZ038-039-048-051-270800-
FOX VALLEY

CITY           SKY/WX    TMP DP  RH WIND       PRES   REMARKS
NWS GREEN BAY  CLEAR      0  -8  69 W8        30.42R WCI -14
APPLETON       CLEAR      0  -9  65 NW9       30.41R WCI -16
OSHKOSH        CLEAR      1  -9  62 W6        30.41R WCI -10
FOND DU LAC      N/A      2  -9  60 CALM      30.42R
$$

WIZ022-050-052-270800-
EAST CENTRAL WISCONSIN

CITY           SKY/WX    TMP DP  RH WIND       PRES   REMARKS
STURGEON BAY   CLEAR     -2  -9  71 CALM      30.41S
MANITOWOC      CLEAR      3  -6  66 NW8       30.42R WCI -10
SHEBOYGAN      CLEAR      2  -7  66 W9        30.41R WCI -13
$$

LMZ563-521-522-541>543-270800-
LAKESHORE

STATION/POSITION TIME  TEMP    WIND        PRES    VSBY  WAVE
                       AIR SEA DIR/SP/G                  HT/PER
                 (UTC) (F)     (DEG/KT/KT) (MB)    (MI)  (FT/S)
SHEBOYGAN LKSHOR 0700    5     280/ 12/ 14 1031.8R
KEWAUNEE LKSHORE 0700          290/  4/  6 1028.6R
NORTHPORT PIER   0700    2     280/  3/  6 1029.1S
SISTER BAY LKSHO 0700   -3        CALM       N/A
CHAMBERS ISLAND  0700   -5     250/  2/  3 1029.1S
MENOMINEE LKSHOR 0700    3     280/  3     1030.0S
$$


USA.gov is the U.S. government's official web portal to all federal, state and local government web resources and services.